This demonstration page uses our WeatherBlox Daily Observations layout. Learn more.

Left ArrowRight Arrow

Hourly Observations for February 18, 2019

Temp ( °F °C ) Dew Point ( °F °C ) Humidity (%) Winds ( mph kmh ) Pressure ( in mb ) Visibility ( mi km ) Precip ( " mm )
12:08 am 00:08 Cloudy with Light Snow 18 -7.8 12 -11.1 77 77 NW 12 19 30.31 1026 4 6 0.00 0.03
12:52 am 00:52 Cloudy with Light Snow 17 -8.3 12 -11.1 80 80 NNW 12 19 30.28 1026 3 4 0.00 0.03
1:18 am 01:18 Cloudy with Light Snow 18 -7.8 12 -11.1 77 77 NNW 10 17 30.34 1027 3 5 0.00 0.03
1:52 am 01:52 Cloudy with Light Snow 17 -8.3 12 -11.1 80 80 NNW 9 15 30.31 1026 6 10 0.00 0.03
2:52 am 02:52 Cloudy with Light Snow 16 -8.9 10 -12.2 77 77 NNW 10 17 30.32 1027 7 11 0.00 0.03
3:47 am 03:47 Cloudy 16 -9 9 -13 73 73 N 10 17 30.39 1029 9 14 0.00 0.03
3:52 am 03:52 Cloudy 15 -9.4 9 -12.8 77 77 N 9 15 30.34 1028 10 16 0.00 0.03
4:27 am 04:27 Mostly Cloudy 13 -10.6 8 -13.3 81 81 NNW 9 15 30.41 1030 10 16 0.00 0.00
4:52 am 04:52 Mostly Cloudy 12 -11.1 7 -13.9 80 80 N 10 17 30.37 1029 10 16 0.00 0.00
5:52 am 05:52 Mostly Cloudy 9 -12.8 5 -15 84 84 N 8 13 30.40 1030 10 16 0.00 0.00
6:52 am 06:52 Partly Cloudy 7 -13.9 2 -16.7 80 80 Calm 30.44 1031 10 16 0.00 0.00
7:52 am 07:52 Mostly Sunny 7 -13.9 4 -15.6 87 87 N 9 15 30.48 1032 8 13 0.00 0.00
8:52 am 08:52 Mostly Sunny 9 -12.8 4 -15.6 80 80 N 12 19 30.51 1033 7 11 0.00 0.00
9:52 am 09:52 Sunny 11 -11.7 5 -15 77 77 N 5 7 30.54 1034 10 16 0.00 0.00
10:52 am 10:52 Hazy 13 -10.6 6 -14.4 74 74 N 13 20 30.54 1034 6 10 0.00 0.00
11:52 am 11:52 Sunny 16 -8.9 7 -13.9 67 67 N 9 15 30.58 1035 10 16 0.00 0.00
12:52 pm 12:52 Mostly Sunny 17 -8.3 8 -13.3 68 68 NNE 12 19 30.57 1035 10 16 0.00 0.00
1:52 pm 13:52 Mostly Sunny 16 -8.9 7 -13.9 67 67 N 13 20 30.56 1035 10 16 0.00 0.00
2:52 pm 14:52 Partly Cloudy 18 -7.8 8 -13.3 65 65 NNE 10 17 30.57 1035 10 16 0.00 0.00
3:52 pm 15:52 Partly Cloudy 17 -8.3 8 -13.3 68 68 N 10 17 30.58 1035 10 16 0.00 0.00
4:52 pm 16:52 Mostly Cloudy 15 -9.4 6 -14.4 67 67 NNE 10 17 30.58 1035 10 16 0.00 0.00
5:52 pm 17:52 Mostly Cloudy 12 -11.1 5 -15 73 73 N 10 17 30.58 1036 10 16 0.00 0.00
6:52 pm 18:52 Mostly Cloudy 8 -13.3 3 -16.1 80 80 N 6 9 30.60 1036 10 16 0.00 0.00
7:52 pm 19:52 Mostly Cloudy 12 -11.1 6 -14.4 77 77 N 6 9 30.61 1037 10 16 0.00 0.00
8:52 pm 20:52 Mostly Cloudy 10 -12.2 5 -15 80 80 NNW 5 7 30.63 1037 10 16 0.00 0.00
9:52 pm 21:52 Mostly Cloudy 3 -16.1 0 -17.8 87 87 N 6 9 30.63 1037 10 16 0.00 0.00
10:52 pm 22:52 Cloudy 9 -12.8 4 -15.6 80 80 NNW 8 13 30.62 1037 10 16 0.00 0.00
11:52 pm 23:52 Partly Cloudy 2 -16.7 -3 -19.4 80 80 N 5 7 30.63 1037 10 16 0.00 0.00

Powered by AerisWeather